Home > Weather > Herzliya > Past weeks

Flag for Israel Past Weather in Herzliya, Israel — Yesterday and Last 2 Weeks

Now
73 °F

Passing clouds.


Feels Like: 73 °F
Forecast: 78 / 86 °F
Wind: 2 mph from North

Location: Ben Gurion International Airport

Current Time: Jul 2, 2016 at 5:15:01 AM

Latest Report: Jul 2, 2016 at 4:20 AM


Visibility: N/A

Pressure: 29.80 "Hg

Humidity: 83%

Dew Point: 68 °F

Location of HerzliyaLocation

Past Weather in Herzliya — Graph

°F

Herzliya Temperature Yesterday

Maximum temperature yesterday: 88 °F (at 11:20 AM)
Minimum temperature yesterday: 75 °F (at 2:50 AM)
Average temperature yesterday: 81 °F

High & Low Weather Summary for the Past Weeks

 TemperatureHumidityPressure
High95 °F (Jun 20, 12:50 PM)94% (Jun 20, 4:20 AM)29.89 "Hg (Jun 20, 4:20 AM)
Low72 °F (Jun 17, 4:50 AM)25% (Jun 20, 1:50 PM)29.68 "Hg (Jun 24, 3:20 PM)
Average82 °F66%29.78 "Hg
* Reported Jun 17 3:20 AM — Jul 2 3:50 AM, Herzliya, Weather by CustomWeather, © 2016

Note: Actual official high and low records may vary slightly from our data, if they occured in-between our weather recording intervals... More about our weather records

Advertising

Herzliya Weather History for the Previous 24 Hours

Scroll right to see more
 ConditionsComfort  
Time TempWeatherWind HumidityBarometerVisibility
3:50 AM
Sat, Jul 2
73 °FPassing clouds.5 mph78%29.80 "HgN/A
3:20 AM75 °FPassing clouds.6 mph78%29.80 "HgN/A
2:50 AM75 °FClear.3 mph78%29.80 "Hg10 mi
2:20 AM75 °FClear.1 mph74%29.80 "Hg10 mi
1:50 AM77 °FClear.1 mph74%29.80 "Hg10 mi
1:20 AM77 °FClear.2 mph79%29.80 "Hg10 mi
12:50 AM77 °FClear.2 mph74%29.83 "Hg10 mi
12:20 AM77 °FPassing clouds.2 mph74%29.83 "HgN/A
11:50 PM
Fri, Jul 1
77 °FPassing clouds.2 mph74%29.83 "HgN/A
11:20 PM77 °FClear.3 mph74%29.83 "Hg10 mi
10:50 PM79 °FClear.3 mph70%29.83 "Hg10 mi
10:20 PM79 °FClear.3 mph70%29.83 "Hg10 mi
9:50 PM79 °FPassing clouds.3 mph70%29.83 "HgN/A
9:20 PM79 °FPassing clouds.3 mph70%29.83 "HgN/A
8:50 PM81 °FPassing clouds.5 mph66%29.83 "HgN/A
8:20 PM81 °FPassing clouds.6 mph70%29.83 "HgN/A
7:50 PM81 °FPassing clouds.9 mph70%29.83 "HgN/A
7:20 PM82 °FPassing clouds.9 mph62%29.83 "HgN/A
6:50 PM82 °FPassing clouds.10 mph62%29.83 "HgN/A
6:20 PM84 °FPassing clouds.10 mph58%29.83 "HgN/A
5:50 PM84 °FPassing clouds.12 mph58%29.80 "HgN/A
5:20 PM84 °FPassing clouds.12 mph58%29.80 "HgN/A
4:50 PM84 °FPassing clouds.13 mph58%29.80 "HgN/A
4:20 PM86 °FPassing clouds.13 mph55%29.83 "HgN/A
3:50 PM86 °FPassing clouds.14 mph55%29.83 "HgN/A
3:20 PM88 °FPassing clouds.14 mph52%29.83 "HgN/A
2:50 PM86 °FPassing clouds.14 mph55%29.83 "HgN/A
2:20 PM86 °FPassing clouds.14 mph55%29.83 "HgN/A
1:50 PM86 °FPassing clouds.12 mph52%29.83 "HgN/A
1:20 PM86 °FPassing clouds.12 mph52%29.83 "HgN/A
12:50 PM88 °FPassing clouds.12 mph46%29.86 "HgN/A
12:20 PM86 °FPassing clouds.12 mph52%29.86 "HgN/A
11:50 AM86 °FPassing clouds.8 mph52%29.86 "HgN/A
11:20 AM88 °FPassing clouds.10 mph52%29.86 "HgN/A
10:50 AM86 °FScattered clouds.5 mph55%29.86 "HgN/A
10:20 AM86 °FScattered clouds.5 mph52%29.86 "HgN/A
9:50 AM84 °FScattered clouds.7 mph58%29.86 "HgN/A
9:20 AM81 °FScattered clouds.7 mph66%29.86 "HgN/A
8:50 AM81 °FScattered clouds.6 mph70%29.89 "HgN/A
8:20 AM81 °FPassing clouds.6 mph70%29.89 "Hg6 mi
7:50 AM77 °FPassing clouds.5 mph74%29.86 "Hg5 mi
7:20 AM77 °FPassing clouds.5 mph74%29.86 "Hg5 mi
6:50 AM75 °FPassing clouds.3 mph74%29.86 "HgN/A
6:20 AM75 °FPassing clouds.6 mph74%29.86 "Hg6 mi
5:50 AM75 °FPassing clouds.5 mph78%29.86 "Hg6 mi
5:20 AM75 °FPassing clouds.3 mph78%29.86 "HgN/A
Weather by CustomWeather, © 2016

See weather overviewHow to use our weather pages